NOAA 16 DEB

Satellite information

Favourite Embed

Satellite Type and Status

DEBRISIN ORBIT

Key statistics

Satellite NOAA 16 DEB at a glance.

Uptime

9156

Days in orbit

Revolutions

≈ 14.4

Per day

Orbit

SSO

Sun Synchronous Orbit

Inclination

98.9

Latest

Satellite identification and parameters

Extended collection of information and parameters for NOAA 16 DEB.

Object identification

Identified? True

Debris? True

Object name: NOAA 16 DEB

International designator: 2000-055DR

Object number (NORAD): 41212

Object ID (CCSDS): 41212

Country: UNITED STATES OF AMERICA (US)

Current information (Y/N): Y

RCS size: SMALL

Orbital parameters

Period: 100.331 minutes

Inclination: 98.9377 deg

SMA: 7152.379 km

Apoapsis: 784.688 km

Periapsis: 763.8 km

RAAN: 63.2851 deg

Eccentricy: 0.00146016

Argument of periapsis: 302.5065 deg

Mean anomaly: 57.4708 deg

Mean motion: 14.35248143 rev/day

Mean motion (dot): 0.00006952 rev/day2

B* drag term: 0.0024404125 1/REarth

Two-line elements (TLE)

Creation date: Oct. 15, 2025, 6:23 p.m.

Reference frame: TEME

Reference center: EARTH

Epoch: Oct. 15, 2025, 7:46 a.m. UTC

TLE line 0: 0 NOAA 16 DEB

TLE line 1: 1 41212U 00055DR 25288.32395266 .00006952 00000-0 24404-2 0 9999

TLE line 2: 2 41212 98.9377 63.2851 0014602 302.5065 57.4708 14.35248143510040

Live tracking on map

Real-time ground track for satellite NOAA 16 DEB.

In-orbit conjunctions

A list of the most updated potential collisions computed for object NOAA 16 DEB.

Target Orbit TCA Probability of collision Miss distance Type
SL-8 R/B LEO 2025-04-22 07:46:33 0.0001208686 612.0 (m) ROCKET BODY
COSMOS 972 LEO 2025-04-04 00:19:06 0.0001498082 253.0 (m) PAYLOAD
PSLV R/B SSO 2025-03-04 02:49:01 0.00308006 52.0 (m) ROCKET BODY
FENGYUN 1C DEB SSO 2024-11-14 21:22:12 0.0001038015 615.0 (m) DEBRIS
COSMOS 1275 DEB LEO 2024-11-09 01:04:17 0.0008767932 223.0 (m) DEBRIS

Associated space launch

The NOAA K, L and M POES satellites begin the fifth generation of improved environmental monitoring in support of NOAA missions. The instrument payload has significant improvements and additions/deletions. The instrument changes have effected the spacecraft subsystems and data formats.

NOAA 16 DEB was lifted into orbit during the mission ‘Titan II SLV | NOAA 16’, on board a Titan II SLV space rocket.

The launch took place on Sept. 21, 2000, 10:22 a.m. from Space Launch Complex 4W.

For more information about the launch, click the button.

Launch to space Titan II SLV | NOAA 16
Titan II SLV | NOAA 16

Agency: N/A

Status: Launch Successful

Launch date: Sept. 21, 2000, 10:22 a.m. UTC

Rocket: Titan II SLV

Launch pad: Space Launch Complex 4W

Location: Vandenberg SFB, CA, USA

...

Latest news about this satellite

There are no fresh news available about this satellite. Check back as we update our databases every day.


Newsletter sign-up

Weekly statistics, charts and insights to help you stay on top of the space industry.